Year,Month,Day,Hour,Minute,Value (Times are PST for temperature in C)
2018,08,04,00,00,15.40
2018,08,04,00,01,15.40
2018,08,04,00,02,15.40
2018,08,04,00,03,15.40
2018,08,04,00,04,15.40
2018,08,04,00,05,15.40
2018,08,04,00,06,15.40
2018,08,04,00,07,15.40
2018,08,04,00,08,15.50
2018,08,04,00,09,15.50
2018,08,04,00,10,15.50
2018,08,04,00,11,15.50
2018,08,04,00,12,15.50
2018,08,04,00,13,15.50
2018,08,04,00,14,15.50
2018,08,04,00,15,15.50
2018,08,04,00,16,15.50
2018,08,04,00,17,15.50
2018,08,04,00,18,15.50
2018,08,04,00,19,15.50
2018,08,04,00,20,15.40
2018,08,04,00,21,15.40
2018,08,04,00,22,15.40
2018,08,04,00,23,15.40
2018,08,04,00,24,15.40
2018,08,04,00,25,15.40
2018,08,04,00,26,15.40
2018,08,04,00,27,15.40
2018,08,04,00,28,15.40
2018,08,04,00,29,15.40
2018,08,04,00,30,15.30
2018,08,04,00,31,15.30
2018,08,04,00,32,15.30
2018,08,04,00,33,15.30
2018,08,04,00,34,15.30
2018,08,04,00,35,15.20
2018,08,04,00,36,15.20
2018,08,04,00,37,15.20
2018,08,04,00,38,15.10
2018,08,04,00,39,15.10
2018,08,04,00,40,15.10
2018,08,04,00,41,15.10
2018,08,04,00,42,15.10
2018,08,04,00,43,15.10
2018,08,04,00,44,15.10
2018,08,04,00,45,15.10
2018,08,04,00,46,15.10
2018,08,04,00,47,15.10
2018,08,04,00,48,15.10
2018,08,04,00,49,15.10
2018,08,04,00,50,15.10
2018,08,04,00,51,15.10
2018,08,04,00,52,15.10
2018,08,04,00,53,15.10
2018,08,04,00,54,15.10
2018,08,04,00,55,15.10
2018,08,04,00,56,15.10
2018,08,04,00,57,15.10
2018,08,04,00,58,15.10
2018,08,04,00,59,15.10
2018,08,04,01,00,15.10
2018,08,04,01,01,15.10
2018,08,04,01,02,15.10
2018,08,04,01,03,15.10
2018,08,04,01,04,15.10
2018,08,04,01,05,15.10
2018,08,04,01,06,15.10
2018,08,04,01,07,15.10
2018,08,04,01,08,15.10
2018,08,04,01,09,15.10
2018,08,04,01,10,15.10
2018,08,04,01,11,15.10
2018,08,04,01,12,15.10
2018,08,04,01,13,15.10
2018,08,04,01,14,15.10
2018,08,04,01,15,15.10
2018,08,04,01,16,15.10
2018,08,04,01,17,15.20
2018,08,04,01,18,15.20
2018,08,04,01,19,15.20
2018,08,04,01,20,15.20
2018,08,04,01,21,15.10
2018,08,04,01,22,15.10
2018,08,04,01,23,15.10
2018,08,04,01,24,15.10
2018,08,04,01,25,15.10
2018,08,04,01,26,15.10
2018,08,04,01,27,15.10
2018,08,04,01,28,15.10
2018,08,04,01,29,15.10
2018,08,04,01,30,15.10
2018,08,04,01,31,15.10
2018,08,04,01,32,15.00
2018,08,04,01,33,15.00
2018,08,04,01,34,15.00
2018,08,04,01,35,15.00
2018,08,04,01,36,15.00
2018,08,04,01,37,15.00
2018,08,04,01,38,15.00
2018,08,04,01,39,15.00
2018,08,04,01,40,14.90
2018,08,04,01,41,14.90
2018,08,04,01,42,14.90
2018,08,04,01,43,14.90
2018,08,04,01,44,14.90
2018,08,04,01,45,14.90
2018,08,04,01,46,14.90
2018,08,04,01,47,14.90
2018,08,04,01,48,14.90
2018,08,04,01,49,15.00
2018,08,04,01,50,15.10
2018,08,04,01,51,15.10
2018,08,04,01,52,15.20
2018,08,04,01,53,15.20
2018,08,04,01,54,15.20
2018,08,04,01,55,15.20
2018,08,04,01,56,15.30
2018,08,04,01,57,15.30
2018,08,04,01,58,15.30
2018,08,04,01,59,15.30
2018,08,04,02,00,15.30
2018,08,04,02,01,15.20
2018,08,04,02,02,15.20
2018,08,04,02,03,15.20
2018,08,04,02,04,15.20
2018,08,04,02,05,15.20
2018,08,04,02,06,15.20
2018,08,04,02,07,15.20
2018,08,04,02,08,15.20
2018,08,04,02,09,15.20
2018,08,04,02,10,15.20
2018,08,04,02,11,15.20
2018,08,04,02,12,15.20
2018,08,04,02,13,15.20
2018,08,04,02,14,15.20
2018,08,04,02,15,15.20
2018,08,04,02,16,15.20
2018,08,04,02,17,15.20
2018,08,04,02,18,15.20
2018,08,04,02,19,15.20
2018,08,04,02,20,15.20
2018,08,04,02,21,15.20
2018,08,04,02,22,15.20
2018,08,04,02,23,15.20
2018,08,04,02,24,15.20
2018,08,04,02,25,15.20
2018,08,04,02,26,15.20
2018,08,04,02,27,15.20
2018,08,04,02,28,15.20
2018,08,04,02,29,15.30
2018,08,04,02,30,15.30
2018,08,04,02,31,15.30
2018,08,04,02,32,15.30
2018,08,04,02,33,15.30
2018,08,04,02,34,15.30
2018,08,04,02,35,15.30
2018,08,04,02,36,15.30
2018,08,04,02,37,15.30
2018,08,04,02,38,15.40
2018,08,04,02,39,15.40
2018,08,04,02,40,15.40
2018,08,04,02,41,15.40
2018,08,04,02,42,15.40
2018,08,04,02,43,15.40
2018,08,04,02,44,15.40
2018,08,04,02,45,15.50
2018,08,04,02,46,15.50
2018,08,04,02,47,15.50
2018,08,04,02,48,15.60
2018,08,04,02,49,15.60
2018,08,04,02,50,15.60
2018,08,04,02,51,15.60
2018,08,04,02,52,15.70
2018,08,04,02,53,15.70
2018,08,04,02,54,15.70
2018,08,04,02,55,15.70
2018,08,04,02,56,15.70
2018,08,04,02,57,15.60
2018,08,04,02,58,15.60
2018,08,04,02,59,15.60
2018,08,04,03,00,15.50
2018,08,04,03,01,15.50
2018,08,04,03,02,15.50
2018,08,04,03,03,15.40
2018,08,04,03,04,15.40
2018,08,04,03,05,15.40
2018,08,04,03,06,15.40
2018,08,04,03,07,15.40
2018,08,04,03,08,15.40
2018,08,04,03,09,15.40
2018,08,04,03,10,15.40
2018,08,04,03,11,15.40
2018,08,04,03,12,15.40
2018,08,04,03,13,15.40
2018,08,04,03,14,15.40
2018,08,04,03,15,15.40
2018,08,04,03,16,15.40
2018,08,04,03,17,15.40
2018,08,04,03,18,15.40
2018,08,04,03,19,15.40
2018,08,04,03,20,15.40
2018,08,04,03,21,15.40
2018,08,04,03,22,15.40
2018,08,04,03,23,15.30
2018,08,04,03,24,15.30
2018,08,04,03,25,15.30
2018,08,04,03,26,15.20
2018,08,04,03,27,15.20
2018,08,04,03,28,15.10
2018,08,04,03,29,15.10
2018,08,04,03,30,15.00
2018,08,04,03,31,15.00
2018,08,04,03,32,14.90
2018,08,04,03,33,15.00
2018,08,04,03,34,15.10
2018,08,04,03,35,15.10
2018,08,04,03,36,15.10
2018,08,04,03,37,15.20
2018,08,04,03,38,15.20
2018,08,04,03,39,15.30
2018,08,04,03,40,15.30
2018,08,04,03,41,15.30
2018,08,04,03,42,15.30
2018,08,04,03,43,15.30
2018,08,04,03,44,15.30
2018,08,04,03,45,15.30
2018,08,04,03,46,15.30
2018,08,04,03,47,15.30
2018,08,04,03,48,15.20
2018,08,04,03,49,15.20
2018,08,04,03,50,15.20
2018,08,04,03,51,15.10
2018,08,04,03,52,15.10
2018,08,04,03,53,15.10
2018,08,04,03,54,15.00
2018,08,04,03,55,14.90
2018,08,04,03,56,14.90
2018,08,04,03,57,14.90
2018,08,04,03,58,14.90
2018,08,04,03,59,14.80
2018,08,04,04,00,14.80
2018,08,04,04,01,14.80
2018,08,04,04,02,14.80
2018,08,04,04,03,14.70
2018,08,04,04,04,14.70
2018,08,04,04,05,14.60
2018,08,04,04,06,14.60
2018,08,04,04,07,14.50
2018,08,04,04,08,14.50
2018,08,04,04,09,14.40
2018,08,04,04,10,14.40
2018,08,04,04,11,14.40
2018,08,04,04,12,14.30
2018,08,04,04,13,14.30
2018,08,04,04,14,14.30
2018,08,04,04,15,14.20
2018,08,04,04,16,14.20
2018,08,04,04,17,14.20
2018,08,04,04,18,14.20
2018,08,04,04,19,14.20
2018,08,04,04,20,14.20
2018,08,04,04,21,14.10
2018,08,04,04,22,14.10
2018,08,04,04,23,14.10
2018,08,04,04,24,14.10
2018,08,04,04,25,14.10
2018,08,04,04,26,14.00
2018,08,04,04,27,14.00
2018,08,04,04,28,13.90
2018,08,04,04,29,13.90
2018,08,04,04,30,13.90
2018,08,04,04,31,13.90
2018,08,04,04,32,13.80
2018,08,04,04,33,13.80
2018,08,04,04,34,13.80
2018,08,04,04,35,13.80
2018,08,04,04,36,13.80
2018,08,04,04,37,13.80
2018,08,04,04,38,13.80
2018,08,04,04,39,13.80
2018,08,04,04,40,13.80
2018,08,04,04,41,13.80
2018,08,04,04,42,13.80
2018,08,04,04,43,13.80
2018,08,04,04,44,13.90
2018,08,04,04,45,13.90
2018,08,04,04,46,13.90
2018,08,04,04,47,13.90
2018,08,04,04,48,14.00
2018,08,04,04,49,14.00
2018,08,04,04,50,14.00
2018,08,04,04,51,14.00
2018,08,04,04,52,14.10
2018,08,04,04,53,14.10
2018,08,04,04,54,14.10
2018,08,04,04,55,14.10
2018,08,04,04,56,14.10
2018,08,04,04,57,14.10
2018,08,04,04,58,14.10
2018,08,04,04,59,14.10
2018,08,04,05,00,14.10
2018,08,04,05,01,14.10
2018,08,04,05,02,14.10
2018,08,04,05,03,14.10
2018,08,04,05,04,14.20
2018,08,04,05,05,14.20
2018,08,04,05,06,14.10
2018,08,04,05,07,14.10
2018,08,04,05,08,14.20
2018,08,04,05,09,14.20
2018,08,04,05,10,14.20
2018,08,04,05,11,14.20
2018,08,04,05,12,14.30
2018,08,04,05,13,14.30
2018,08,04,05,14,14.30
2018,08,04,05,15,14.30
2018,08,04,05,16,14.30
2018,08,04,05,17,14.30
2018,08,04,05,18,14.30
2018,08,04,05,19,14.30
2018,08,04,05,20,14.30
2018,08,04,05,21,14.30
2018,08,04,05,22,14.30
2018,08,04,05,23,14.30
2018,08,04,05,24,14.30
2018,08,04,05,25,14.40
2018,08,04,05,26,14.50
2018,08,04,05,27,14.60
2018,08,04,05,28,14.60
2018,08,04,05,29,14.70
2018,08,04,05,30,14.70
2018,08,04,05,31,14.70
2018,08,04,05,32,14.70
2018,08,04,05,33,14.70
2018,08,04,05,34,14.70
2018,08,04,05,35,14.70
2018,08,04,05,36,14.80
2018,08,04,05,37,14.80
2018,08,04,05,38,14.80
2018,08,04,05,39,14.80
2018,08,04,05,40,14.80
2018,08,04,05,41,14.80
2018,08,04,05,42,14.80
2018,08,04,05,43,14.70
2018,08,04,05,44,14.70
2018,08,04,05,45,14.70
2018,08,04,05,46,14.60
2018,08,04,05,47,14.60
2018,08,04,05,48,14.60
2018,08,04,05,49,14.60
2018,08,04,05,50,14.50
2018,08,04,05,51,14.50
2018,08,04,05,52,14.40
2018,08,04,05,53,14.40
2018,08,04,05,54,14.40
2018,08,04,05,55,14.40
2018,08,04,05,56,14.40
2018,08,04,05,57,14.30
2018,08,04,05,58,14.40
2018,08,04,05,59,14.30
2018,08,04,06,00,14.40
2018,08,04,06,01,14.40
2018,08,04,06,02,14.40
2018,08,04,06,03,14.40
2018,08,04,06,04,14.40
2018,08,04,06,05,14.40
2018,08,04,06,06,14.40
2018,08,04,06,07,14.40
2018,08,04,06,08,14.40
2018,08,04,06,09,14.40
2018,08,04,06,10,14.40
2018,08,04,06,11,14.40
2018,08,04,06,12,14.40
2018,08,04,06,13,14.40
2018,08,04,06,14,14.40
2018,08,04,06,15,14.40
2018,08,04,06,16,14.40
2018,08,04,06,17,14.40
2018,08,04,06,18,14.40
2018,08,04,06,19,14.30
2018,08,04,06,20,14.30
2018,08,04,06,21,14.30
2018,08,04,06,22,14.30
2018,08,04,06,23,14.30
2018,08,04,06,24,14.30
2018,08,04,06,25,14.30
2018,08,04,06,26,14.30
2018,08,04,06,27,14.30
2018,08,04,06,28,14.30
2018,08,04,06,29,14.40
2018,08,04,06,30,14.40
2018,08,04,06,31,14.40
2018,08,04,06,32,14.40
2018,08,04,06,33,14.50
2018,08,04,06,34,14.50
2018,08,04,06,35,14.50
2018,08,04,06,36,14.60
2018,08,04,06,37,14.60
2018,08,04,06,38,14.60
2018,08,04,06,39,14.60
2018,08,04,06,40,14.70
2018,08,04,06,41,14.70
2018,08,04,06,42,14.70
2018,08,04,06,43,14.70
2018,08,04,06,44,14.80
2018,08,04,06,45,14.80
2018,08,04,06,46,14.80
2018,08,04,06,47,14.80
2018,08,04,06,48,14.90
2018,08,04,06,49,14.90
2018,08,04,06,50,14.90
2018,08,04,06,51,14.90
2018,08,04,06,52,14.90
2018,08,04,06,53,15.00
2018,08,04,06,54,15.00
2018,08,04,06,55,15.10
2018,08,04,06,56,15.10
2018,08,04,06,57,15.10
2018,08,04,06,58,15.20
2018,08,04,06,59,15.20
2018,08,04,07,00,15.20
2018,08,04,07,01,15.20
2018,08,04,07,02,15.30
2018,08,04,07,03,15.30
2018,08,04,07,04,15.30
2018,08,04,07,05,15.30
2018,08,04,07,06,15.40
2018,08,04,07,07,15.40
2018,08,04,07,08,15.40
2018,08,04,07,09,15.50
2018,08,04,07,10,15.50
2018,08,04,07,11,15.60
2018,08,04,07,12,15.60
2018,08,04,07,13,15.60
2018,08,04,07,14,15.70
2018,08,04,07,15,15.70
2018,08,04,07,16,15.70
2018,08,04,07,17,15.80
2018,08,04,07,18,15.80
2018,08,04,07,19,15.80
2018,08,04,07,20,15.80
2018,08,04,07,21,15.90
2018,08,04,07,22,15.90
2018,08,04,07,23,15.90
2018,08,04,07,24,15.90
2018,08,04,07,25,16.00
2018,08,04,07,26,16.00
2018,08,04,07,27,16.00
2018,08,04,07,28,16.00
2018,08,04,07,29,16.10
2018,08,04,07,30,16.10
2018,08,04,07,31,16.10
2018,08,04,07,32,16.20
2018,08,04,07,33,16.20
2018,08,04,07,34,16.20
2018,08,04,07,35,16.20
2018,08,04,07,36,16.30
2018,08,04,07,37,16.30
2018,08,04,07,38,16.30
2018,08,04,07,39,16.40
2018,08,04,07,40,16.40
2018,08,04,07,41,16.40
2018,08,04,07,42,16.40
2018,08,04,07,43,16.50
2018,08,04,07,44,16.50
2018,08,04,07,45,16.50
2018,08,04,07,46,16.60
2018,08,04,07,47,16.60
2018,08,04,07,48,16.60
2018,08,04,07,49,16.60
2018,08,04,07,50,16.60
2018,08,04,07,51,16.70
2018,08,04,07,52,16.70
2018,08,04,07,53,16.70
2018,08,04,07,54,16.70
2018,08,04,07,55,16.70
2018,08,04,07,56,16.70
2018,08,04,07,57,16.70
2018,08,04,07,58,16.70
2018,08,04,07,59,16.70
2018,08,04,08,00,16.70
2018,08,04,08,01,16.70
2018,08,04,08,02,16.70
2018,08,04,08,03,16.70
2018,08,04,08,04,16.70
2018,08,04,08,05,16.70
2018,08,04,08,06,16.70
2018,08,04,08,07,16.70
2018,08,04,08,08,16.70
2018,08,04,08,09,16.80
2018,08,04,08,10,16.80
2018,08,04,08,11,16.80
2018,08,04,08,12,16.80
2018,08,04,08,13,16.80
2018,08,04,08,14,16.80
2018,08,04,08,15,16.90
2018,08,04,08,16,16.90
2018,08,04,08,17,16.90
2018,08,04,08,18,16.90
2018,08,04,08,19,16.90
2018,08,04,08,20,16.90
2018,08,04,08,21,17.00
2018,08,04,08,22,17.10
2018,08,04,08,23,17.10
2018,08,04,08,24,17.10
2018,08,04,08,25,17.20
2018,08,04,08,26,17.20
2018,08,04,08,27,17.20
2018,08,04,08,28,17.20
2018,08,04,08,29,17.20
2018,08,04,08,30,17.20
2018,08,04,08,31,17.20
2018,08,04,08,32,17.20
2018,08,04,08,33,17.30
2018,08,04,08,34,17.30
2018,08,04,08,35,17.30
2018,08,04,08,36,17.30
2018,08,04,08,37,17.30
2018,08,04,08,38,17.30
2018,08,04,08,39,17.30
2018,08,04,08,40,17.30
2018,08,04,08,41,17.40
2018,08,04,08,42,17.40
2018,08,04,08,43,17.50
2018,08,04,08,44,17.60
2018,08,04,08,45,17.70
2018,08,04,08,46,17.70
2018,08,04,08,47,17.70
2018,08,04,08,48,17.70
2018,08,04,08,49,17.80
2018,08,04,08,50,17.80
2018,08,04,08,51,17.90
2018,08,04,08,52,17.90
2018,08,04,08,53,17.90
2018,08,04,08,54,18.00
2018,08,04,08,55,18.00
2018,08,04,08,56,18.00
2018,08,04,08,57,18.00
2018,08,04,08,58,17.90
2018,08,04,08,59,17.90
2018,08,04,09,00,17.90
2018,08,04,09,01,17.80
2018,08,04,09,02,17.80
2018,08,04,09,03,17.80
2018,08,04,09,04,17.90
2018,08,04,09,05,17.90
2018,08,04,09,06,17.90
2018,08,04,09,07,17.90
2018,08,04,09,08,17.90
2018,08,04,09,09,17.90
2018,08,04,09,10,17.90
2018,08,04,09,11,17.90
2018,08,04,09,12,17.90
2018,08,04,09,13,18.00
2018,08,04,09,14,18.00
2018,08,04,09,15,18.10
2018,08,04,09,16,18.20
2018,08,04,09,17,18.20
2018,08,04,09,18,18.30
2018,08,04,09,19,18.30
2018,08,04,09,20,18.30
2018,08,04,09,21,18.40
2018,08,04,09,22,18.40
2018,08,04,09,23,18.40
2018,08,04,09,24,18.40
2018,08,04,09,25,18.40
2018,08,04,09,26,18.40
2018,08,04,09,27,18.30
2018,08,04,09,28,18.30
2018,08,04,09,29,18.30
2018,08,04,09,30,18.40
2018,08,04,09,31,18.40
2018,08,04,09,32,18.50
2018,08,04,09,33,18.60
2018,08,04,09,34,18.70
2018,08,04,09,35,18.70
2018,08,04,09,36,18.70
2018,08,04,09,37,18.80
2018,08,04,09,38,18.80
2018,08,04,09,39,18.90
2018,08,04,09,40,18.90
2018,08,04,09,41,19.00
2018,08,04,09,42,19.10
2018,08,04,09,43,19.10
2018,08,04,09,44,19.20
2018,08,04,09,45,19.20
2018,08,04,09,46,19.20
2018,08,04,09,47,19.20
2018,08,04,09,48,19.20
2018,08,04,09,49,19.20
2018,08,04,09,50,19.30
2018,08,04,09,51,19.40
2018,08,04,09,52,19.50
2018,08,04,09,53,19.60
2018,08,04,09,54,19.60
2018,08,04,09,55,19.70
2018,08,04,09,56,19.70
2018,08,04,09,57,19.70
2018,08,04,09,58,19.70
2018,08,04,09,59,19.80
2018,08,04,10,00,19.80
2018,08,04,10,01,19.80
2018,08,04,10,02,19.90
2018,08,04,10,03,19.90
2018,08,04,10,04,20.00
2018,08,04,10,05,20.00
2018,08,04,10,06,20.10
2018,08,04,10,07,20.00
2018,08,04,10,08,19.90
2018,08,04,10,09,19.90
2018,08,04,10,10,19.80
2018,08,04,10,11,19.80
2018,08,04,10,12,19.80
2018,08,04,10,13,19.90
2018,08,04,10,14,20.00
2018,08,04,10,15,20.00
2018,08,04,10,16,20.10
2018,08,04,10,17,20.10
2018,08,04,10,18,20.20
2018,08,04,10,19,20.30
2018,08,04,10,20,20.30
2018,08,04,10,21,20.20
2018,08,04,10,22,20.20
2018,08,04,10,23,20.20
2018,08,04,10,24,20.30
2018,08,04,10,25,20.30
2018,08,04,10,26,20.30
2018,08,04,10,27,20.30
2018,08,04,10,28,20.30
2018,08,04,10,29,20.30
2018,08,04,10,30,20.30
2018,08,04,10,31,20.30
2018,08,04,10,32,20.20
2018,08,04,10,33,20.20
2018,08,04,10,34,20.20
2018,08,04,10,35,20.20
2018,08,04,10,36,20.20
2018,08,04,10,37,20.20
2018,08,04,10,38,20.20
2018,08,04,10,39,20.30
2018,08,04,10,40,20.30
2018,08,04,10,41,20.40
2018,08,04,10,42,20.50
2018,08,04,10,43,20.60
2018,08,04,10,44,20.70
2018,08,04,10,45,20.80
2018,08,04,10,46,20.80
2018,08,04,10,47,20.80
2018,08,04,10,48,20.80
2018,08,04,10,49,20.90
2018,08,04,10,50,20.90
2018,08,04,10,51,20.90
2018,08,04,10,52,21.00
2018,08,04,10,53,21.10
2018,08,04,10,54,21.20
2018,08,04,10,55,21.20
2018,08,04,10,56,21.30
2018,08,04,10,57,21.30
2018,08,04,10,58,21.30
2018,08,04,10,59,21.30
2018,08,04,11,00,21.30
2018,08,04,11,01,21.30
2018,08,04,11,02,21.40
2018,08,04,11,03,21.40
2018,08,04,11,04,21.40
2018,08,04,11,05,21.40
2018,08,04,11,06,21.40
2018,08,04,11,07,21.40
2018,08,04,11,08,21.30
2018,08,04,11,09,21.30
2018,08,04,11,10,21.30
2018,08,04,11,11,21.30
2018,08,04,11,12,21.30
2018,08,04,11,13,21.30
2018,08,04,11,14,21.40
2018,08,04,11,15,21.40
2018,08,04,11,16,21.40
2018,08,04,11,17,21.50
2018,08,04,11,18,21.50
2018,08,04,11,19,21.60
2018,08,04,11,20,21.60
2018,08,04,11,21,21.70
2018,08,04,11,22,21.70
2018,08,04,11,23,21.70
2018,08,04,11,24,21.70
2018,08,04,11,25,21.70
2018,08,04,11,26,21.70
2018,08,04,11,27,21.60
2018,08,04,11,28,21.60
2018,08,04,11,29,21.60
2018,08,04,11,30,21.60
2018,08,04,11,31,21.60
2018,08,04,11,32,21.60
2018,08,04,11,33,21.70
2018,08,04,11,34,21.70
2018,08,04,11,35,21.60
2018,08,04,11,36,21.70
2018,08,04,11,37,21.70
2018,08,04,11,38,21.80
2018,08,04,11,39,21.80
2018,08,04,11,40,21.90
2018,08,04,11,41,21.90
2018,08,04,11,42,21.90
2018,08,04,11,43,22.00
2018,08,04,11,44,22.00
2018,08,04,11,45,22.10
2018,08,04,11,46,22.10
2018,08,04,11,47,22.10
2018,08,04,11,48,22.20
2018,08,04,11,49,22.10
2018,08,04,11,50,22.10
2018,08,04,11,51,22.10
2018,08,04,11,52,22.10
2018,08,04,11,53,22.20
2018,08,04,11,54,22.20
2018,08,04,11,55,22.20
2018,08,04,11,56,22.30
2018,08,04,11,57,22.30
2018,08,04,11,58,22.30
2018,08,04,11,59,22.30
2018,08,04,12,00,22.40
2018,08,04,12,01,22.40
2018,08,04,12,02,22.40
2018,08,04,12,03,22.40
2018,08,04,12,04,22.40
2018,08,04,12,05,22.40
2018,08,04,12,06,22.30
2018,08,04,12,07,22.40
2018,08,04,12,08,22.50
2018,08,04,12,09,22.50
2018,08,04,12,10,22.60
2018,08,04,12,11,22.60
2018,08,04,12,12,22.60
2018,08,04,12,13,22.50
2018,08,04,12,14,22.50
2018,08,04,12,15,22.60
2018,08,04,12,16,22.70
2018,08,04,12,17,22.70
2018,08,04,12,18,22.70
2018,08,04,12,19,22.80
2018,08,04,12,20,22.80
2018,08,04,12,21,22.80
2018,08,04,12,22,22.80
2018,08,04,12,23,22.80
2018,08,04,12,24,22.70
2018,08,04,12,25,22.70
2018,08,04,12,26,22.70
2018,08,04,12,27,22.80
2018,08,04,12,28,22.80
2018,08,04,12,29,22.90
2018,08,04,12,30,22.90
2018,08,04,12,31,22.90
2018,08,04,12,32,23.00
2018,08,04,12,33,23.10
2018,08,04,12,34,23.10
2018,08,04,12,35,23.10
2018,08,04,12,36,23.10
2018,08,04,12,37,23.10
2018,08,04,12,38,23.10
2018,08,04,12,39,23.10
2018,08,04,12,40,23.10
2018,08,04,12,41,23.20
2018,08,04,12,42,23.10
2018,08,04,12,43,23.10
2018,08,04,12,44,23.10
2018,08,04,12,45,23.00
2018,08,04,12,46,22.90
2018,08,04,12,47,22.90
2018,08,04,12,48,22.80
2018,08,04,12,49,22.70
2018,08,04,12,50,22.60
2018,08,04,12,51,22.60
2018,08,04,12,52,22.60
2018,08,04,12,53,22.60
2018,08,04,12,54,22.70
2018,08,04,12,55,22.80
2018,08,04,12,56,22.90
2018,08,04,12,57,23.00
2018,08,04,12,58,23.20
2018,08,04,12,59,23.20
2018,08,04,13,00,23.30
2018,08,04,13,01,23.30
2018,08,04,13,02,23.30
2018,08,04,13,03,23.30
2018,08,04,13,04,23.40
2018,08,04,13,05,23.40
2018,08,04,13,06,23.40
2018,08,04,13,07,23.40
2018,08,04,13,08,23.40
2018,08,04,13,09,23.40
2018,08,04,13,10,23.40
2018,08,04,13,11,23.40
2018,08,04,13,12,23.40
2018,08,04,13,13,23.30
2018,08,04,13,14,23.30
2018,08,04,13,15,23.30
2018,08,04,13,16,23.30
2018,08,04,13,17,23.20
2018,08,04,13,18,23.20
2018,08,04,13,19,23.20
2018,08,04,13,20,23.20
2018,08,04,13,21,23.30
2018,08,04,13,22,23.30
2018,08,04,13,23,23.30
2018,08,04,13,24,23.30
2018,08,04,13,25,23.40
2018,08,04,13,26,23.40
2018,08,04,13,27,23.40
2018,08,04,13,28,23.40
2018,08,04,13,29,23.30
2018,08,04,13,30,23.40
2018,08,04,13,31,23.40
2018,08,04,13,32,23.40
2018,08,04,13,33,23.40
2018,08,04,13,34,23.40
2018,08,04,13,35,23.40
2018,08,04,13,36,23.40
2018,08,04,13,37,23.50
2018,08,04,13,38,23.60
2018,08,04,13,39,23.70
2018,08,04,13,40,23.70
2018,08,04,13,41,23.80
2018,08,04,13,42,23.70
2018,08,04,13,43,23.70
2018,08,04,13,44,23.70
2018,08,04,13,45,23.70
2018,08,04,13,46,23.80
2018,08,04,13,47,23.80
2018,08,04,13,48,23.90
2018,08,04,13,49,23.90
2018,08,04,13,50,23.90
2018,08,04,13,51,23.90
2018,08,04,13,52,23.90
2018,08,04,13,53,23.90
2018,08,04,13,54,24.00
2018,08,04,13,55,24.10
2018,08,04,13,56,24.10
2018,08,04,13,57,24.10
2018,08,04,13,58,24.10
2018,08,04,13,59,24.20
2018,08,04,14,00,24.20
2018,08,04,14,01,24.20
2018,08,04,14,02,24.20
2018,08,04,14,03,24.20
2018,08,04,14,04,24.10
2018,08,04,14,05,24.00
2018,08,04,14,06,24.00
2018,08,04,14,07,24.00
2018,08,04,14,08,24.00
2018,08,04,14,09,24.00
2018,08,04,14,10,24.00
2018,08,04,14,11,24.00
2018,08,04,14,12,24.10
2018,08,04,14,13,24.10
2018,08,04,14,14,24.10
2018,08,04,14,15,24.10
2018,08,04,14,16,24.10
2018,08,04,14,17,24.20
2018,08,04,14,18,24.20
2018,08,04,14,19,24.30
2018,08,04,14,20,24.30
2018,08,04,14,21,24.40
2018,08,04,14,22,24.40
2018,08,04,14,23,24.40
2018,08,04,14,24,24.40
2018,08,04,14,25,24.30
2018,08,04,14,26,24.40
2018,08,04,14,27,24.40
2018,08,04,14,28,24.50
2018,08,04,14,29,24.50
2018,08,04,14,30,24.60
2018,08,04,14,31,24.60
2018,08,04,14,32,24.60
2018,08,04,14,33,24.70
2018,08,04,14,34,24.70
2018,08,04,14,35,24.70
2018,08,04,14,36,24.70
2018,08,04,14,37,24.70
2018,08,04,14,38,24.60
2018,08,04,14,39,24.60
2018,08,04,14,40,24.60
2018,08,04,14,41,24.70
2018,08,04,14,42,24.80
2018,08,04,14,43,24.90
2018,08,04,14,44,24.90
2018,08,04,14,45,25.00
2018,08,04,14,46,25.10
2018,08,04,14,47,25.10
2018,08,04,14,48,25.20
2018,08,04,14,49,25.20
2018,08,04,14,50,25.30
2018,08,04,14,51,25.30
2018,08,04,14,52,25.30
2018,08,04,14,53,25.30
2018,08,04,14,54,25.30
2018,08,04,14,55,25.30
2018,08,04,14,56,25.30
2018,08,04,14,57,25.30
2018,08,04,14,58,25.30
2018,08,04,14,59,25.30
2018,08,04,15,00,25.30
2018,08,04,15,01,25.30
2018,08,04,15,02,25.30
2018,08,04,15,03,25.30
2018,08,04,15,04,25.30
2018,08,04,15,05,25.30
2018,08,04,15,06,25.30
2018,08,04,15,07,25.30
2018,08,04,15,08,25.30
2018,08,04,15,09,25.30
2018,08,04,15,10,25.30
2018,08,04,15,11,25.30
2018,08,04,15,12,25.30
2018,08,04,15,13,25.30
2018,08,04,15,14,25.40
2018,08,04,15,15,25.40
2018,08,04,15,16,25.30
2018,08,04,15,17,25.30
2018,08,04,15,18,25.30
2018,08,04,15,19,25.30
2018,08,04,15,20,25.30
2018,08,04,15,21,25.30
2018,08,04,15,22,25.40
2018,08,04,15,23,25.40
2018,08,04,15,24,25.40
2018,08,04,15,25,25.50
2018,08,04,15,26,25.60
2018,08,04,15,27,25.60
2018,08,04,15,28,25.70
2018,08,04,15,29,25.70
2018,08,04,15,30,25.70
2018,08,04,15,31,25.70
2018,08,04,15,32,25.80
2018,08,04,15,33,25.80
2018,08,04,15,34,25.80
2018,08,04,15,35,25.80
2018,08,04,15,36,25.80
2018,08,04,15,37,25.80
2018,08,04,15,38,25.80
2018,08,04,15,39,25.70
2018,08,04,15,40,25.70
2018,08,04,15,41,25.60
2018,08,04,15,42,25.60
2018,08,04,15,43,25.60
2018,08,04,15,44,25.60
2018,08,04,15,45,25.70
2018,08,04,15,46,25.70
2018,08,04,15,47,25.80
2018,08,04,15,48,25.80
2018,08,04,15,49,25.80
2018,08,04,15,50,25.80
2018,08,04,15,51,25.80
2018,08,04,15,52,25.80
2018,08,04,15,53,25.80
2018,08,04,15,54,25.70
2018,08,04,15,55,25.60
2018,08,04,15,56,25.50
2018,08,04,15,57,25.50
2018,08,04,15,58,25.60
2018,08,04,15,59,25.60
2018,08,04,16,00,25.60
2018,08,04,16,01,25.70
2018,08,04,16,02,25.70
2018,08,04,16,03,25.70
2018,08,04,16,04,25.70
2018,08,04,16,05,25.70
2018,08,04,16,06,25.70
2018,08,04,16,07,25.70
2018,08,04,16,08,25.70
2018,08,04,16,09,25.80
2018,08,04,16,10,25.80
2018,08,04,16,11,25.90
2018,08,04,16,12,25.90
2018,08,04,16,13,26.00
2018,08,04,16,14,26.00
2018,08,04,16,15,26.10
2018,08,04,16,16,26.10
2018,08,04,16,17,26.10
2018,08,04,16,18,26.10
2018,08,04,16,19,26.20
2018,08,04,16,20,26.20
2018,08,04,16,21,26.20
2018,08,04,16,22,26.20
2018,08,04,16,23,26.20
2018,08,04,16,24,26.20
2018,08,04,16,25,26.20
2018,08,04,16,26,26.20
2018,08,04,16,27,26.30
2018,08,04,16,28,26.30
2018,08,04,16,29,26.30
2018,08,04,16,30,26.20
2018,08,04,16,31,26.20
2018,08,04,16,32,26.00
2018,08,04,16,33,25.90
2018,08,04,16,34,25.90
2018,08,04,16,35,25.80
2018,08,04,16,36,25.80
2018,08,04,16,37,25.80
2018,08,04,16,38,25.80
2018,08,04,16,39,25.80
2018,08,04,16,40,25.80
2018,08,04,16,41,25.80
2018,08,04,16,42,25.70
2018,08,04,16,43,25.70
2018,08,04,16,44,25.70
2018,08,04,16,45,25.70
2018,08,04,16,46,25.70
2018,08,04,16,47,25.70
2018,08,04,16,48,25.80
2018,08,04,16,49,25.80
2018,08,04,16,50,25.80
2018,08,04,16,51,25.80
2018,08,04,16,52,25.80
2018,08,04,16,53,25.90
2018,08,04,16,54,25.90
2018,08,04,16,55,25.90
2018,08,04,16,56,26.00
2018,08,04,16,57,26.10
2018,08,04,16,58,26.20
2018,08,04,16,59,26.20
2018,08,04,17,00,26.20
2018,08,04,17,01,26.20
2018,08,04,17,02,26.20
2018,08,04,17,03,26.30
2018,08,04,17,04,26.20
2018,08,04,17,05,26.20
2018,08,04,17,06,26.30
2018,08,04,17,07,26.30
2018,08,04,17,08,26.30
2018,08,04,17,09,26.30
2018,08,04,17,10,26.30
2018,08,04,17,11,26.30
2018,08,04,17,12,26.30
2018,08,04,17,13,26.20
2018,08,04,17,14,26.20
2018,08,04,17,15,26.20
2018,08,04,17,16,26.10
2018,08,04,17,17,26.10
2018,08,04,17,18,26.20
2018,08,04,17,19,26.20